Flag for India Weather past 2 weeks in Wardha, Maharashtra, India

Now
86 °F

Haze.


Feels Like: 88 °F
Forecast: 75 / 100 °F
Wind: 6 mph from West

Location: Nagpur Sonegaon

Current Time: Mar 31, 2015 at 11:39:52 AM

Latest Report: Mar 31, 2015 at 10:40 AM


Visibility: 1 mi

Pressure: 29.98 "Hg

Humidity: 52%

Dew point: 66 °F

Location of WardhaLocation

Historic Weather in Wardha — Graph

°F

Wardha temperature yesterday

Maximum temperature yesterday: 84 °F (at 2:40 PM)
Minimum temperature yesterday: 72 °F (at 11:40 PM)
Average temperature yesterday: 78 °F

Past Weeks' High & Low Weather Summary

 TemperatureHumidityPressure
High104 °F (Mar 25, 3:40 PM)83% (Mar 17, 6:40 AM)30.07 "Hg (Mar 17, 6:40 AM)
Low63 °F (Mar 19, 6:40 AM)14% (Mar 26, 1:40 PM)29.74 "Hg (Mar 29, 4:40 PM)
Average85 °F48%29.93 "Hg
* Reported Mar 16 9:40 AM — Mar 31 9:40 AM, Wardha, Weather by CustomWeather, © 2015

Note: Actual official high and low records may vary slightly from our data, if they occured in-between our weather recording intervals... More about our weather records

Advertising

Wardha weather history for previous 24 hours

 ConditionsComfort  
Time TempWeatherWind HumidityBarometerVisibility
9:40 AM
Tue, Mar 31
82 °FHaze.2 mph58%29.98 "Hg1 mi
8:40 AM79 °FFog.2 mph65%29.98 "Hg1 mi
7:40 AM72 °FFog.2 mph65%29.95 "Hg1 mi
6:40 AM66 °FFog.No wind83%29.92 "Hg1 mi
4:40 AM68 °FPassing clouds.No wind83%29.89 "Hg2 mi
3:40 AM70 °FPassing clouds.No wind83%29.89 "Hg2 mi
1:40 AM70 °FPassing clouds.No wind60%29.89 "Hg2 mi
11:40 PM
Mon, Mar 30
72 °FPassing clouds.No wind61%29.92 "Hg2 mi
10:40 PM73 °FPassing clouds.5 mph65%29.92 "Hg2 mi
9:40 PM73 °FPassing clouds.3 mph65%29.92 "Hg2 mi
8:40 PM77 °FPassing clouds.5 mph65%29.89 "Hg2 mi
6:40 PM81 °FPartly sunny.3 mph58%29.86 "Hg2 mi
5:40 PM84 °FPartly sunny.6 mph55%29.83 "Hg2 mi
4:40 PM84 °FHaze.6 mph51%29.86 "Hg2 mi
3:40 PM84 °FScattered clouds.7 mph58%29.86 "Hg2 mi
2:40 PM84 °FScattered clouds.6 mph45%29.86 "Hg2 mi
1:40 PM82 °FScattered clouds.7 mph66%29.92 "Hg2 mi
12:40 PM81 °FBroken clouds.6 mph66%29.95 "Hg2 mi
11:40 AM79 °FBroken clouds.6 mph65%29.98 "Hg1 mi
Weather by CustomWeather, © 2015

See weather overviewHow to use our weather pages